Overview Statistics Trail Chart Weather Telemetry Raw packets
 

This is the latest recevied weather packets stored in our database for station/object KB9HUO. If no packets are shown the sender has not sent any weather packets the latest 10 day(s).

<< 68 69 70 71 72 73 74 >>
Time Temp. Humidity Pressure Rain* Wind** Luminosity Snow
1788185397 27.78° C 78% 1020.6 hPa 0 mm - 64 W/m² -
1788185096 27.78° C 79% 1020.7 hPa 0 mm - 60 W/m² -
1788184800 27.22° C 80% 1020.8 hPa 0 mm - 58 W/m² -
1788184494 27.22° C 80% 1020.6 hPa 0 mm - 58 W/m² -
1788184189 27.22° C 81% 1020.7 hPa 0 mm - 56 W/m² -
1788183886 26.67° C 83% 1020.7 hPa 0 mm - 56 W/m² -
1788183585 26.67° C 83% 1020.6 hPa 0 mm - 63 W/m² -
1788183280 26.11° C 84% 1020.6 hPa 0 mm - 51 W/m² -
1788182975 26.11° C 85% 1020.8 hPa 0 mm - 51 W/m² -
1788182671 25.56° C 87% 1020.6 hPa 0 mm - 51 W/m² -
1788182370 25.56° C 88% 1020.6 hPa 0 mm - 48 W/m² -
1788182065 25° C 91% 1020.6 hPa 0 mm - 48 W/m² -
1788181761 24.44° C 92% 1020.6 hPa 0 mm - 45 W/m² -
1788181457 23.89° C 95% 1020.6 hPa 0 mm - 45 W/m² -
1788181156 23.33° C 98% 1020.4 hPa 0 mm - 42 W/m² -
1788180851 22.78° C 98% 1020.6 hPa 0 mm - 41 W/m² -
1788180546 22.22° C 98% 1020.7 hPa 0 mm - 43 W/m² -
1788180243 22.22° C 98% 1020.5 hPa 0 mm - 44 W/m² -
1788179937 21.67° C 98% 1020.3 hPa 0 mm - 40 W/m² -
1788179635 21.67° C 98% 1020.5 hPa 0 mm - 43 W/m² -
1788179325 21.11° C 98% 1020.4 hPa 0 mm - 37 W/m² -
1788179020 21.11° C 98% 1020.3 hPa 0 mm - 30 W/m² -
1788178721 20.56° C 98% 1020.4 hPa 0 mm - 25 W/m² -
1788178417 20.56° C 98% 1020.3 hPa 0 mm - 24 W/m² -
1788178113 20.56° C 98% 1020.4 hPa 0 mm - 24 W/m² -

* Rain latest hour (hover to see other rain measurements)
** Current wind speed in m/s (hover to see current wind gust speed)